EJU14TS LFPO-LSGG

Flight info

Callsign EJU14TS
Flight time N/A
Altitude 27000
Route PILUL2E PILUL DCT PIMUP DCT PIXIS DCT PIBAT/N0360F230 DCT LUSAR LUSAR2R
Aircraft A320/M-SDE3FGHIRWY/LB1

Departure

Time 2026-05-05 15:10
Airport Paris-Orly Airport (LFPO)

Arrival

Time N/A
Airport Geneva International Airport (LSGG)
Time Latitude Longitude Altitude Speed Heading
2026-05-05 14:46 48.72981 2.35790 295 ft 0 kts 158°
2026-05-05 14:58 48.73001 2.35778 298 ft 4 kts 158°
2026-05-05 14:58 48.73026 2.35762 296 ft 4 kts 158°
2026-05-05 14:58 48.73051 2.35746 296 ft 4 kts 158°
2026-05-05 14:59 48.73072 2.35734 298 ft 4 kts 176°
2026-05-05 14:59 48.73095 2.35744 299 ft 4 kts 227°
2026-05-05 14:59 48.73111 2.35777 297 ft 4 kts 240°
2026-05-05 14:59 48.73115 2.35788 298 ft 0 kts 237°
2026-05-05 15:02 48.73106 2.35768 300 ft 6 kts 238°
2026-05-05 15:02 48.73075 2.35690 296 ft 10 kts 245°
2026-05-05 15:02 48.73089 2.35596 300 ft 10 kts 301°
2026-05-05 15:02 48.73080 2.35511 295 ft 9 kts 237°
2026-05-05 15:03 48.73050 2.35450 298 ft 0 kts 233°
2026-05-05 15:03 48.73048 2.35447 297 ft 1 kts 233°
2026-05-05 15:03 48.73040 2.35429 299 ft 4 kts 233°
2026-05-05 15:04 48.73007 2.35387 296 ft 9 kts 206°
2026-05-05 15:04 48.72932 2.35350 296 ft 14 kts 199°
2026-05-05 15:04 48.72837 2.35313 299 ft 10 kts 193°
2026-05-05 15:04 48.72764 2.35271 295 ft 13 kts 199°
2026-05-05 15:05 48.72566 2.35312 299 ft 17 kts 165°
2026-05-05 15:05 48.72447 2.35362 295 ft 18 kts 162°
2026-05-05 15:05 48.72349 2.35442 297 ft 17 kts 135°
2026-05-05 15:06 48.72288 2.35567 297 ft 15 kts 139°
2026-05-05 15:06 48.72178 2.35621 296 ft 20 kts 166°
2026-05-05 15:06 48.72060 2.35697 297 ft 15 kts 139°
2026-05-05 15:06 48.72024 2.35766 296 ft 0 kts 120°
2026-05-05 15:09 48.71995 2.35844 300 ft 18 kts 120°
2026-05-05 15:09 48.71989 2.36121 300 ft 49 kts 75°
2026-05-05 15:09 48.72082 2.36593 300 ft 91 kts 75°
2026-05-05 15:09 48.72302 2.37794 301 ft 143 kts 75°
2026-05-05 15:10 48.72610 2.39415 508 ft 170 kts 70°
2026-05-05 15:10 48.72961 2.41226 941 ft 190 kts 70°
2026-05-05 15:10 48.73341 2.43273 1297 ft 215 kts 72°
2026-05-05 15:10 48.73766 2.45585 1860 ft 239 kts 70°
2026-05-05 15:11 48.74073 2.48118 2711 ft 251 kts 84°
2026-05-05 15:11 48.74150 2.50781 3676 ft 255 kts 85°
2026-05-05 15:11 48.74239 2.53494 4616 ft 260 kts 85°
2026-05-05 15:11 48.74251 2.56246 5545 ft 265 kts 98°
2026-05-05 15:12 48.73441 2.58772 6394 ft 275 kts 132°
2026-05-05 15:12 48.71819 2.60345 7286 ft 282 kts 156°
2026-05-05 15:12 48.69928 2.61200 8170 ft 287 kts 166°
2026-05-05 15:12 48.67961 2.61799 9025 ft 290 kts 168°
2026-05-05 15:13 48.65948 2.62230 9861 ft 295 kts 178°
2026-05-05 15:13 48.63894 2.61917 10628 ft 300 kts 191°
2026-05-05 15:13 48.61882 2.60943 11289 ft 311 kts 203°
2026-05-05 15:13 48.59872 2.59436 11559 ft 334 kts 206°
2026-05-05 15:14 48.57766 2.57827 12117 ft 343 kts 206°
2026-05-05 15:14 48.55622 2.56182 12872 ft 347 kts 206°
2026-05-05 15:14 48.53460 2.54517 13608 ft 350 kts 206°
2026-05-05 15:14 48.51263 2.52904 14261 ft 352 kts 199°
2026-05-05 15:15 48.48881 2.52077 14932 ft 353 kts 182°
2026-05-05 15:15 48.46442 2.52336 15615 ft 353 kts 166°
2026-05-05 15:15 48.44153 2.53643 16293 ft 354 kts 149°
2026-05-05 15:15 48.42195 2.55906 16960 ft 357 kts 133°
2026-05-05 15:16 48.40594 2.58785 17616 ft 360 kts 129°
2026-05-05 15:16 48.39004 2.61724 18243 ft 364 kts 129°
2026-05-05 15:16 48.37393 2.64689 18806 ft 368 kts 130°
2026-05-05 15:16 48.35763 2.67672 19367 ft 371 kts 130°
2026-05-05 15:17 48.34113 2.70680 19922 ft 374 kts 130°
2026-05-05 15:17 48.32451 2.73704 20464 ft 376 kts 130°
2026-05-05 15:17 48.30776 2.76747 20749 ft 378 kts 130°
2026-05-05 15:17 48.29099 2.79794 20810 ft 378 kts 130°
2026-05-05 15:18 48.27343 2.82715 20813 ft 378 kts 138°
2026-05-05 15:18 48.25307 2.85200 20811 ft 377 kts 143°
2026-05-05 15:18 48.23228 2.87594 20807 ft 377 kts 143°
2026-05-05 15:18 48.21157 2.89989 20810 ft 377 kts 143°
2026-05-05 15:19 48.19082 2.92396 20809 ft 376 kts 143°
2026-05-05 15:19 48.17014 2.94791 20810 ft 376 kts 143°
2026-05-05 15:19 48.14948 2.97181 20810 ft 375 kts 143°
2026-05-05 15:19 48.12882 2.99565 20811 ft 375 kts 143°
2026-05-05 15:20 48.10817 3.01941 20807 ft 375 kts 143°
2026-05-05 15:20 48.08722 3.04243 20805 ft 374 kts 148°
2026-05-05 15:20 48.06415 3.06024 20807 ft 372 kts 158°
2026-05-05 15:20 48.04025 3.07518 20808 ft 372 kts 158°
2026-05-05 15:21 48.01641 3.09017 20812 ft 372 kts 158°
2026-05-05 15:21 47.99259 3.10517 20811 ft 372 kts 158°
2026-05-05 15:21 47.96875 3.12018 20809 ft 371 kts 158°
2026-05-05 15:21 47.94504 3.13514 20810 ft 371 kts 158°
2026-05-05 15:22 47.92127 3.15011 20813 ft 370 kts 158°
2026-05-05 15:22 47.89750 3.16505 20813 ft 370 kts 158°
2026-05-05 15:22 47.87378 3.17993 20814 ft 370 kts 158°
2026-05-05 15:22 47.85010 3.19476 20813 ft 369 kts 158°
2026-05-05 15:23 47.82640 3.20958 20817 ft 369 kts 158°
2026-05-05 15:23 47.80274 3.22439 20819 ft 369 kts 158°
2026-05-05 15:23 47.77910 3.23915 20816 ft 369 kts 158°
2026-05-05 15:23 47.75552 3.25385 20818 ft 368 kts 158°
2026-05-05 15:24 47.73177 3.26863 20818 ft 368 kts 158°
2026-05-05 15:24 47.70816 3.28333 20819 ft 368 kts 158°
2026-05-05 15:24 47.68455 3.29805 20820 ft 368 kts 158°
2026-05-05 15:24 47.66113 3.31260 20819 ft 368 kts 158°
2026-05-05 15:25 47.63852 3.32663 20820 ft 368 kts 158°
2026-05-05 15:25 47.61501 3.34124 20823 ft 368 kts 158°
2026-05-05 15:25 47.59133 3.35588 20824 ft 368 kts 158°
2026-05-05 15:25 47.56764 3.37050 20824 ft 368 kts 158°
2026-05-05 15:26 47.54404 3.38508 20824 ft 368 kts 158°
2026-05-05 15:26 47.52043 3.39972 20825 ft 368 kts 158°
2026-05-05 15:26 47.49680 3.41435 20827 ft 368 kts 158°
2026-05-05 15:26 47.47307 3.42901 20827 ft 368 kts 158°
2026-05-05 15:27 47.44950 3.44356 20826 ft 368 kts 158°
2026-05-05 15:27 47.42595 3.45807 20830 ft 368 kts 158°
2026-05-05 15:27 47.40229 3.47264 20830 ft 368 kts 158°
2026-05-05 15:27 47.37874 3.48714 20828 ft 368 kts 158°
2026-05-05 15:28 47.35507 3.50169 20834 ft 367 kts 158°
2026-05-05 15:28 47.33152 3.51616 20837 ft 367 kts 158°
2026-05-05 15:28 47.30791 3.53063 20834 ft 368 kts 159°
2026-05-05 15:28 47.28426 3.54509 20835 ft 368 kts 159°
2026-05-05 15:29 47.26061 3.55951 20838 ft 368 kts 159°
2026-05-05 15:29 47.23699 3.57389 20836 ft 368 kts 159°
2026-05-05 15:29 47.21344 3.58819 20838 ft 367 kts 159°
2026-05-05 15:29 47.18980 3.60255 20843 ft 367 kts 159°
2026-05-05 15:30 47.16616 3.61693 20840 ft 367 kts 159°
2026-05-05 15:30 47.14240 3.63139 20840 ft 367 kts 159°
2026-05-05 15:30 47.11878 3.64575 20845 ft 367 kts 159°
2026-05-05 15:30 47.09518 3.66006 20845 ft 367 kts 159°
2026-05-05 15:31 47.07155 3.67442 20844 ft 367 kts 159°
2026-05-05 15:31 47.04802 3.68872 20846 ft 367 kts 159°
2026-05-05 15:31 47.02440 3.70305 20850 ft 367 kts 159°
2026-05-05 15:31 47.00083 3.71732 20850 ft 367 kts 159°
2026-05-05 15:32 46.97773 3.73241 20846 ft 368 kts 153°
2026-05-05 15:32 46.95659 3.75366 20849 ft 371 kts 141°
2026-05-05 15:32 46.93876 3.78099 20848 ft 374 kts 130°
2026-05-05 15:32 46.92504 3.81338 20851 ft 377 kts 117°
2026-05-05 15:33 46.91520 3.84915 20848 ft 379 kts 114°
2026-05-05 15:33 46.90574 3.88497 20856 ft 379 kts 114°
2026-05-05 15:33 46.89623 3.92100 20855 ft 379 kts 114°
2026-05-05 15:33 46.88666 3.95708 20854 ft 379 kts 114°
2026-05-05 15:34 46.87708 3.99304 20854 ft 379 kts 114°
2026-05-05 15:34 46.86749 4.02900 20855 ft 379 kts 114°
2026-05-05 15:34 46.85790 4.06496 20854 ft 380 kts 114°
2026-05-05 15:34 46.84833 4.10086 20854 ft 380 kts 114°
2026-05-05 15:35 46.83875 4.13673 20853 ft 380 kts 114°
2026-05-05 15:35 46.82912 4.17268 20852 ft 380 kts 114°
2026-05-05 15:35 46.81952 4.20852 20854 ft 380 kts 114°
2026-05-05 15:35 46.80991 4.24450 20858 ft 380 kts 113°
2026-05-05 15:36 46.80263 4.28172 20859 ft 383 kts 104°
2026-05-05 15:36 46.79723 4.31979 20858 ft 383 kts 105°
2026-05-05 15:36 46.79175 4.35779 20858 ft 383 kts 105°
2026-05-05 15:36 46.78618 4.39589 20858 ft 383 kts 105°
2026-05-05 15:37 46.78058 4.43389 20857 ft 383 kts 105°
2026-05-05 15:37 46.77496 4.47189 20855 ft 383 kts 105°
2026-05-05 15:37 46.76937 4.50985 20854 ft 383 kts 105°
2026-05-05 15:37 46.76378 4.54793 20854 ft 383 kts 105°
2026-05-05 15:38 46.75820 4.58594 20855 ft 383 kts 105°
2026-05-05 15:38 46.75259 4.62395 20858 ft 384 kts 105°
2026-05-05 15:38 46.74696 4.66201 20853 ft 384 kts 105°
2026-05-05 15:38 46.74130 4.70003 20859 ft 384 kts 105°
2026-05-05 15:39 46.73564 4.73802 20861 ft 384 kts 105°
2026-05-05 15:39 46.72998 4.77597 20860 ft 384 kts 105°
2026-05-05 15:39 46.72429 4.81395 20863 ft 384 kts 105°
2026-05-05 15:39 46.71868 4.85134 20865 ft 384 kts 105°
2026-05-05 15:40 46.71297 4.88943 20863 ft 384 kts 105°
2026-05-05 15:40 46.70724 4.92742 20864 ft 384 kts 105°
2026-05-05 15:40 46.70150 4.96544 20871 ft 384 kts 105°
2026-05-05 15:40 46.69577 5.00342 20868 ft 385 kts 105°
2026-05-05 15:41 46.68997 5.04155 20869 ft 385 kts 106°
2026-05-05 15:41 46.68418 5.07960 20868 ft 385 kts 106°
2026-05-05 15:41 46.67836 5.11770 20867 ft 385 kts 106°
2026-05-05 15:41 46.67255 5.15573 20861 ft 386 kts 106°
2026-05-05 15:42 46.66673 5.19389 20860 ft 386 kts 106°
2026-05-05 15:42 46.66095 5.23208 20871 ft 386 kts 105°
2026-05-05 15:42 46.65521 5.27009 20762 ft 381 kts 105°
2026-05-05 15:42 46.64961 5.30727 20511 ft 372 kts 106°
2026-05-05 15:43 46.64420 5.34314 20252 ft 364 kts 106°
2026-05-05 15:43 46.63882 5.37875 20003 ft 357 kts 106°
2026-05-05 15:43 46.63355 5.41362 19759 ft 350 kts 106°
2026-05-05 15:43 46.62834 5.44787 19511 ft 344 kts 106°
2026-05-05 15:44 46.62309 5.48224 19258 ft 342 kts 106°
2026-05-05 15:44 46.61789 5.51587 19022 ft 341 kts 106°
2026-05-05 15:44 46.61264 5.54946 18782 ft 340 kts 106°
2026-05-05 15:44 46.60745 5.58252 18545 ft 339 kts 106°
2026-05-05 15:45 46.60221 5.61588 18310 ft 338 kts 106°
2026-05-05 15:45 46.59697 5.64915 18057 ft 337 kts 106°
2026-05-05 15:45 46.59174 5.68234 17789 ft 336 kts 106°
2026-05-05 15:45 46.58653 5.71545 17513 ft 335 kts 107°
2026-05-05 15:46 46.58136 5.74831 17257 ft 334 kts 107°
2026-05-05 15:46 46.57502 5.78056 16987 ft 329 kts 117°
2026-05-05 15:46 46.56431 5.80952 16727 ft 322 kts 129°
2026-05-05 15:46 46.54986 5.83389 16464 ft 316 kts 142°
2026-05-05 15:47 46.53264 5.85310 16210 ft 311 kts 150°
2026-05-05 15:47 46.52062 5.86509 16032 ft 310 kts 149°
2026-05-05 15:47 46.49714 5.88859 15689 ft 309 kts 149°
2026-05-05 15:47 46.47953 5.90632 15444 ft 308 kts 149°
2026-05-05 15:48 46.46195 5.92398 15199 ft 306 kts 149°
2026-05-05 15:48 46.44445 5.94152 14945 ft 305 kts 150°
2026-05-05 15:48 46.42701 5.95896 14695 ft 304 kts 150°
2026-05-05 15:48 46.41010 5.97723 14450 ft 306 kts 139°
2026-05-05 15:49 46.39825 6.00300 14169 ft 314 kts 115°
2026-05-05 15:49 46.39462 6.03434 13848 ft 322 kts 90°
2026-05-05 15:49 46.39992 6.06543 13521 ft 327 kts 68°
2026-05-05 15:49 46.41021 6.09474 13141 ft 328 kts 63°
2026-05-05 15:50 46.42114 6.12380 12788 ft 327 kts 63°
2026-05-05 15:50 46.43208 6.15259 12455 ft 325 kts 63°
2026-05-05 15:50 46.44304 6.18121 12089 ft 324 kts 63°
2026-05-05 15:50 46.45393 6.20972 11777 ft 323 kts 63°
2026-05-05 15:51 46.46480 6.23811 11443 ft 321 kts 63°
2026-05-05 15:51 46.47561 6.26630 11148 ft 319 kts 63°
2026-05-05 15:51 46.48642 6.29442 10767 ft 318 kts 63°
2026-05-05 15:51 46.49718 6.32242 10410 ft 317 kts 63°
2026-05-05 15:52 46.50792 6.35021 10104 ft 315 kts 63°
2026-05-05 15:52 46.51859 6.37778 9779 ft 312 kts 63°
2026-05-05 15:52 46.52677 6.40653 9409 ft 304 kts 84°
2026-05-05 15:52 46.52628 6.43625 9018 ft 290 kts 110°
2026-05-05 15:53 46.51683 6.46045 8816 ft 266 kts 143°
2026-05-05 15:53 46.50116 6.47124 8688 ft 242 kts 179°
2026-05-05 15:53 46.48536 6.46726 8475 ft 225 kts 205°
2026-05-05 15:53 46.47231 6.45471 7872 ft 227 kts 221°
2026-05-05 15:54 46.46095 6.43862 7325 ft 228 kts 225°
2026-05-05 15:54 46.45008 6.42231 6980 ft 221 kts 225°
2026-05-05 15:54 46.43958 6.40664 6686 ft 212 kts 225°
2026-05-05 15:54 46.43285 6.39662 6502 ft 206 kts 224°
2026-05-05 15:55 46.42305 6.38208 6247 ft 198 kts 225°
2026-05-05 15:55 46.41359 6.36806 5981 ft 191 kts 225°
2026-05-05 15:55 46.40462 6.35475 5745 ft 179 kts 225°
2026-05-05 15:55 46.39623 6.34231 5493 ft 165 kts 225°
2026-05-05 15:56 46.38855 6.33094 5300 ft 150 kts 225°
2026-05-05 15:56 46.38145 6.32044 5089 ft 143 kts 225°
2026-05-05 15:56 46.37451 6.31017 4906 ft 142 kts 225°
2026-05-05 15:56 46.36759 6.29993 4705 ft 142 kts 225°
2026-05-05 15:57 46.36073 6.28978 4519 ft 142 kts 225°
2026-05-05 15:57 46.35381 6.27956 4326 ft 142 kts 225°
2026-05-05 15:57 46.34688 6.26931 4135 ft 142 kts 225°
2026-05-05 15:57 46.34005 6.25922 3947 ft 140 kts 225°
2026-05-05 15:58 46.33320 6.24910 3753 ft 141 kts 225°
2026-05-05 15:58 46.32634 6.23897 3569 ft 140 kts 225°
2026-05-05 15:58 46.31953 6.22893 3377 ft 140 kts 225°
2026-05-05 15:58 46.31272 6.21887 3189 ft 140 kts 225°
2026-05-05 15:59 46.30587 6.20877 3004 ft 141 kts 225°
2026-05-05 15:59 46.29905 6.19873 2793 ft 140 kts 225°
2026-05-05 15:59 46.29216 6.18857 2592 ft 140 kts 224°
2026-05-05 15:59 46.28538 6.17858 2399 ft 139 kts 225°
2026-05-05 16:00 46.27856 6.16853 2189 ft 141 kts 226°
2026-05-05 16:00 46.27184 6.15866 1989 ft 138 kts 226°
2026-05-05 16:00 46.26508 6.14871 1832 ft 140 kts 229°
2026-05-05 16:00 46.25836 6.13882 1643 ft 138 kts 227°
2026-05-05 16:01 46.25161 6.12889 1463 ft 138 kts 228°
2026-05-05 16:01 46.24520 6.11946 1390 ft 115 kts 223°
2026-05-05 16:01 46.23926 6.11076 1727 ft 126 kts 223°